Location: Big Meadows
(38.5260°N, 78.4400°W)
Time: 03:09:40
(UTC-05:00)

Daily predictions for brighter satellites

Satellite Brightness Start Highest point End
(mag) Time Altitude Azimuth Time Altitude Azimuth Time Altitude Azimuth
H-2A R/B (2) 4.4 03:29:29 53° S 03:30:17 54° SSE 05:09:11 10° E
USA 215 4.1 03:47:47 10° ENE 03:53:24 44° ESE 03:53:24 44° ESE
CENTAUR R/B 3.3 04:11:32 46° NE 04:11:32 46° NE 04:16:12 10° NE
Thor Agena Rocket 4.3 04:36:26 10° SSE 04:39:44 42° SSE 04:39:44 42° SSE
Lacrosse 5 4.4 04:47:55 10° SSE 04:51:27 19° ESE 04:55:00 10° ENE
Cosmos 2333 Rocket 4.3 04:56:53 13° N 04:56:53 13° N 04:57:31 10° N
Meteor 1-14 Rocket 4.1 04:48:27 10° S 04:54:09 87° W 04:59:47 10° N
Cosmos 2297 3.6 04:54:45 65° NNW 04:55:39 85° ENE 05:01:19 10° SSE
COSMO-SKYMED 1 4.2 04:52:02 10° SE 04:55:53 32° ENE 04:59:03 14° NNE
DELTA 2 R/B (1) 3.6 05:01:35 59° SW 05:01:50 60° SSW 05:07:16 10° ESE
Celestis-02/Orion 38 4.5 05:06:27 10° SSE 05:11:36 87° WSW 05:13:26 42° NNW
Cosmos 2278 Rocket 3.6 05:14:02 23° SW 05:14:02 23° SW 05:16:35 10° SSW
Cosmos 2074 Rocket 4.1 05:05:24 10° S 05:11:40 79° E 05:17:56 10° N
Okean 1 4.3 05:09:30 20° NNE 05:12:04 46° E 05:15:57 10° SSE
Cosmos 923 Rocket 4.4 05:13:21 44° NNW 05:13:21 44° NNW 05:17:24 10° N
USA 32 4.2 05:08:57 10° N 05:14:12 74° E 05:19:25 10° S
Meteor 1-25 Rocket 4.2 05:11:38 10° S 05:17:29 84° W 05:23:20 10° N
SL-16 R/B 2.2 05:17:23 49° W 05:18:10 53° WNW 05:23:44 10° NNE
Ariane Rocket 3.9 05:16:50 10° NNE 05:21:46 49° E 05:26:38 10° S
Cosmos 2184 Rocket 3.9 05:19:11 10° S 05:25:20 85° W 05:31:33 10° N
Cosmos 292 Rocket 3.7 05:23:40 30° SW 05:25:52 59° WNW 05:30:40 10° N
Cosmos 1812 2.5 05:28:27 61° NW 05:28:57 71° W 05:32:47 10° S
Cosmos 1346 Rocket 3.1 05:28:50 17° N 05:31:45 65° E 05:35:38 10° SSE
Timation 1 Rocket 4.5 05:30:47 33° NW 05:33:12 52° WSW 05:38:59 10° S
GPS 2-05 Rocket1 3.3 05:32:52 48° SW 05:33:22 53° S 05:36:55 10° ESE
Iridium 2 3.6 05:30:20 10° SSW 05:34:05 61° W 05:35:36 33° NNW
USA 215 3.4 05:30:43 10° NE 05:37:00 51° NW 05:40:47 24° W
CZ-4 R/B 3.9 05:37:12 10° NE 05:40:23 23° E 05:43:32 10° SSE
Cosmos 2154 Rocket 4.4 05:34:31 10° S 05:40:39 65° E 05:46:47 10° NNE
Cosmos 1680 Rocket 3.9 05:38:54 28° WSW 05:40:52 38° WNW 05:45:43 10° N
SL-08 ROCKET BODY 4.3 05:35:09 10° SSW 05:41:03 59° W 05:46:53 10° N
SKYMED 2 3.5 05:39:32 10° S 05:43:50 70° WSW 05:47:40 13° NNW
Cosmos 2151 Rocket 3.9 05:40:23 10° SSW 05:44:40 43° W 05:48:58 10° N
Cosmos 2237 Rocket 4.1 05:52:17 12° NNW 05:52:17 12° NNW 05:53:01 10° NNW
Radarsat Rocket 4.4 05:43:42 10° N 05:50:38 69° WNW 05:58:28 10° SSW
Meteor 1-28 Rocket 3.3 05:50:13 10° SSE 05:53:59 79° ENE 05:57:48 10° N
CSL-04 DEB 4.3 05:51:04 10° N 05:55:06 71° WNW 05:59:13 10° SSW
Cosmos 1536 3.8 05:51:20 10° SSE 05:55:10 49° E 05:59:03 10° NNE
CZ-3 R/B 3.4 05:48:39 10° SW 05:56:17 21° S 05:59:49 10° SE
Cosmos 1633 2.6 05:53:01 10° S 05:56:41 81° E 06:00:20 10° N
NOAA 6 4.5 05:55:34 10° N 06:00:14 37° WNW 06:04:53 10° SW
CENTAUR R/B 3.6 05:58:46 20° WNW 06:00:56 24° NW 06:06:25 10° NNE
Abrixas rocket 3.3 05:58:50 10° SW 06:02:04 47° SE 06:05:19 10° ENE
Cosmos 1610 Rocket 4.5 05:58:40 10° SSW 06:04:42 58° W 06:10:52 10° N
Tiangong 2 1.9 06:05:56 25° NW 06:07:10 37° N 06:10:08 10° ENE
Helios 1B rocket 4.1 06:05:18 10° SE 06:09:04 35° ENE 06:12:50 10° N
Cosmos 1536 Rocket 4.3 06:06:16 12° NNW 06:09:43 31° W 06:13:36 10° SSW
CSL-04 Debris 4.2 06:05:20 10° NNE 06:10:49 84° WNW 06:16:18 10° SSW
Gbstr 26 Del rocket 4.2 06:08:43 18° W 06:10:51 26° SW 06:14:14 10° S
CSL-04 Rocket 3.7 06:05:34 10° N 06:11:07 72° WNW 06:16:35 10° SSW
CZ-2C R/B 3.7 06:06:31 10° NNE 06:11:31 47° E 06:16:22 10° S
Cosmos 1238 Rocket 4.4 06:08:45 15° NW 06:11:49 26° W 06:16:25 10° SW
Cosmos 1603 3.9 06:10:09 10° SW 06:15:38 48° WNW 06:21:08 10° NNE
YAOGAN 1 3.9 06:12:56 10° NNE 06:17:06 44° E 06:21:14 10° S
Cosmos 2369 Rocket 2.7 06:14:38 10° NNW 06:20:20 63° ENE 06:25:57 10° SSE
Cosmos 44 3.9 06:17:41 10° SSW 06:23:02 68° ESE 06:28:15 10° NE
SMAP 3.7 06:20:19 10° NNE 06:24:56 60° E 06:29:32 10° S
Okean 1 Rocket 3.5 06:23:11 10° SSW 06:27:20 40° W 06:31:29 10° N
Cosmos 1025 Rocket 3.1 06:23:10 10° N 06:27:35 86° E 06:31:56 10° S
COSMO-SKYMED 1 3.9 06:28:54 10° SW 06:32:05 20° W 06:35:17 10° NW
PSLV R/B 3.2 06:29:19 13° WNW 06:32:21 82° NNE 06:35:42 10° ESE
Cosmos 1544 Rocket 4.4 06:29:00 10° S 06:33:13 54° E 06:37:29 10° NNE
Lacrosse 5 1.9 06:28:54 10° SW 06:33:58 64° NW 06:39:03 10° NE
PAYLOAD A 4.1 06:30:15 10° N 06:35:35 70° WNW 06:40:58 10° SSW
Kosmos-1675 3.8 06:33:11 10° SW 06:35:48 64° NW 06:45:18 10° NNE
GRACE-2 3.7 06:33:50 10° N 06:36:37 77° W 06:39:23 10° S
Okean 1-7 Rocket 3.9 06:32:28 10° NNW 06:36:40 45° W 06:40:50 10° SSW
GRACE-1 3.7 06:34:15 10° N 06:37:02 74° W 06:39:48 10° S
Nadezhda 3 Rocket 4.3 06:32:28 10° NNW 06:38:32 48° W 06:44:35 10° SSW
SPOT 3 Rocket 3.7 06:33:41 10° NNE 06:38:51 79° ESE 06:43:59 10° S
CORIOLIS 4.5 06:36:21 10° NNE 06:41:43 73° ESE 06:47:02 10° S
Cosmos 1943 3.2 06:37:18 10° SSW 06:42:51 64° WNW 06:48:28 10° NNE
Cosmos 2056 Rocket 4.1 06:38:53 10° NW 06:43:31 35° W 06:48:07 10° SSW
USA 129 3.7 06:46:20 10° SW 06:47:19 13° W 06:48:22 10° WNW
MOS 1 4.3 06:42:10 10° NNE 06:47:50 87° WNW 06:53:28 10° SSW
USA 229 DEB 4.0 06:41:39 10° SSW 06:48:31 79° ESE 06:55:29 10° NE
USA 229 4.0 06:41:47 10° SSW 06:48:38 79° ESE 06:55:36 10° NE
Cosmos 44 Rocket 3.9 06:47:29 10° WSW 06:52:21 40° NW 06:57:11 10° NNE
